Weather History for Milton, FL

Change the Weather History Date:

Monday, October 29, 2012

  Actual Average (KNSE) Record (KNSE)
Temperature  
Mean Temperature 52 °F -  
Max Temperature 62 °F 74 °F 82 °F (1996)
Min Temperature 42 °F 55 °F 32 °F (2008)
Degree Days  
Heating Degree Days 13    
Growing Degree Days 2 (Base 50)    
Moisture  
Dew Point 32 °F    
Average Humidity 52    
Maximum Humidity 73    
Minimum Humidity 29    
Precipitation  
Precipitation 0.00 in - - ()
Sea Level Pressure  
Sea Level Pressure 29.98 in    
Wind  
Wind Speed 12 mph (NNW)    
Max Wind Speed 20 mph    
Max Gust Speed 29 mph    
Visibility 10 miles    
Events      
Averages and records for this station are not official NWS values.
T = Trace of Precipitation, MM = Missing Value Source: NWS Daily Summary

Daily Weather History Graph

Daily Weather History Graph

Search for Another Location

Airport:

Trip Planner

Search our weather history database for the weather conditions in past years. The results will help you decide how hot, cold, wet, or windy it might be!

Date:

Astronomy

Oct. 29, 2012 Rise Set
Actual Time 7:00 AM CDT 6:02 PM CDT
Civil Twilight 6:36 AM CDT 6:26 PM CDT
Nautical Twilight 6:07 AM CDT 6:55 PM CDT
Astronomical Twilight 5:39 AM CDT 7:23 PM CDT
Moon 5:56 PM CDT (10/29) 6:49 AM CDT (10/29)
Length of Visible Light 11h 50m
Length of Day
11h 01m
Full, 100% of the Moon is Illuminated
Oct 29
Full
Oct 29
Full
Nov 6
Last Quarter
Nov 13
New
Nov 20
First Quarter

Hourly Weather History & Observations

Time (CDT) Temp. Windchill Dew Point Humidity Pressure Visibility Wind Dir Wind Speed Gust Speed Precip Events Conditions
12:56 AM 48.0 °F - 36.0 °F 63% 29.99 in 10.0 mi NW 10.4 mph - N/A   Clear
1:56 AM 46.9 °F - 35.1 °F 63% 30.00 in 10.0 mi NW 9.2 mph - N/A   Clear
2:56 AM 46.0 °F 41.4 °F 35.1 °F 66% 29.99 in 10.0 mi NW 9.2 mph - N/A   Clear
3:56 AM 44.1 °F 39.5 °F 34.0 °F 68% 30.00 in 10.0 mi NW 8.1 mph - N/A   Clear
4:56 AM 43.0 °F 37.2 °F 34.0 °F 71% 30.00 in 10.0 mi NNW 10.4 mph - N/A   Clear
5:56 AM 43.0 °F 36.0 °F 34.0 °F 71% 30.01 in 10.0 mi NNW 13.8 mph - N/A   Clear
6:56 AM 42.1 °F 35.7 °F 34.0 °F 73% 30.02 in 10.0 mi NNW 11.5 mph - N/A   Clear
7:56 AM 44.1 °F 37.4 °F 35.1 °F 71% 30.04 in 10.0 mi NNW 13.8 mph - N/A   Clear
8:56 AM 46.9 °F - 35.1 °F 63% 30.04 in 10.0 mi North 17.3 mph 24.2 mph N/A   Clear
9:56 AM 52.0 °F - 35.1 °F 53% 30.04 in 10.0 mi NNW 15.0 mph - N/A   Clear
10:56 AM 55.0 °F - 33.1 °F 43% 30.03 in 10.0 mi NNW 18.4 mph 24.2 mph N/A   Clear
11:56 AM 57.9 °F - 30.9 °F 36% 30.01 in 10.0 mi North 18.4 mph 25.3 mph N/A   Clear
12:56 PM 60.1 °F - 28.9 °F 31% 29.97 in 10.0 mi NNW 18.4 mph 28.8 mph N/A   Clear
1:56 PM 62.1 °F - 30.0 °F 30% 29.94 in 10.0 mi NNW 18.4 mph 25.3 mph N/A   Clear
2:56 PM 61.0 °F - 28.0 °F 29% 29.92 in 10.0 mi NNW 17.3 mph 28.8 mph N/A   Clear
3:56 PM 61.0 °F - 28.9 °F 30% 29.92 in 10.0 mi NNW 17.3 mph 28.8 mph N/A   Clear
4:56 PM 59.0 °F - 28.9 °F 32% 29.91 in 10.0 mi NNW 18.4 mph 27.6 mph N/A   Clear
5:56 PM 55.9 °F - 28.9 °F 36% 29.93 in 10.0 mi NNW 19.6 mph 24.2 mph N/A   Clear
6:56 PM 53.1 °F - 32.0 °F 45% 29.94 in 10.0 mi NW 9.2 mph - N/A   Clear
7:56 PM 51.1 °F - 32.0 °F 48% 29.96 in 10.0 mi NW 9.2 mph - N/A   Clear
8:56 PM 48.0 °F - 33.1 °F 56% 29.97 in 10.0 mi WNW 4.6 mph - N/A   Clear
9:56 PM 48.9 °F - 30.9 °F 50% 29.98 in 10.0 mi NW 9.2 mph - N/A   Clear
10:56 PM 48.0 °F - 30.9 °F 52% 29.98 in 10.0 mi NW 9.2 mph - N/A   Clear
11:56 PM 46.9 °F - 32.0 °F 56% 29.98 in 10.0 mi NW 8.1 mph - N/A   Clear